Regional Weather Roundup
Issued by NWS Cleveland, OH

Home | Current Version | Previous Version | Text Only | Print | Product List | Glossary Off
Versions: 1 2 3 4 5 6 7 8 9 10 11 12 13 14 15 16 17 18 19 20 21 22 23 24 25 26 27 28 29 30 31 32 33 34 35 36 37 38 39 40 41 42 43 44 45 46 47 48 49 50

000
ASUS41 KCLE 300700
RWRCLE
OHIO REGIONAL WEATHER ROUNDUP
NATIONAL WEATHER SERVICE WILMINGTON, OH
300 AM EDT TUE JUN 30 2015

NOTE: "FAIR" INDICATES FEW OR NO CLOUDS BELOW 12,000 FEET WITH NO
SIGNIFICANT WEATHER AND/OR OBSTRUCTIONS TO VISIBILITY.

OHZ001>008-015>018-024>027-034-035-043-044-300800-
   NORTHWEST OHIO

CITY           SKY/WX    TMP DP  RH WIND       PRES   REMARKS
DEFIANCE       CLOUDY    63  60  90 CALM      29.81F
FINDLAY        CLOUDY    63  61  93 W5        29.80F
TOLEDO EXPRESS CLOUDY    62  59  90 W3        29.80F
TOLEDO EXEC    CLOUDY    63  59  87 SW3       29.81F
LIMA           FOG       61  60  97 SW3       29.82S VSB 1/4
$$

OHZ009>014-019>023-028>033-038-089-300800-
   NORTHEAST OHIO

CITY           SKY/WX    TMP DP  RH WIND       PRES   REMARKS
CLE-HOPKINS    CLOUDY    62  59  90 S6        29.82F
CLE-LAKEFRONT  CLOUDY    64  59  83 SE3       29.79F
CUY CO. ARPT   NOT AVBL
LORAIN-ELYRIA  CLOUDY    62  60  93 CALM      29.80F
ASHTABULA      CLOUDY    62  59  90 E6        29.83F
AKRON-CANTON   CLOUDY    63  60  90 SW3       29.81F FOG
WOOSTER        NOT AVBL
MANSFIELD      CLOUDY    61  61 100 SW3       29.81F FOG
YOUNGSTOWN     CLOUDY    61  58  90 SE8       29.82F
$$

OHZ042-051>053-060>062-070>072-077>081-300800-
  SOUTHWEST OHIO

CITY           SKY/WX    TMP DP  RH WIND       PRES   REMARKS
CINC-COVINGTON CLEAR     66  64  93 SW5       29.84S
CINC-LUNKEN    CLEAR     65  64  97 CALM      29.84R
HAMILTON       FOG       63  63 100 CALM      29.83F VSB 1/4
DAYTON         NOT AVBL
WRIGHT-PAT AFB NOT AVBL
DAYTON GENERAL FOG       65  63  93 CALM      29.82F VSB 1
WILMINGTON     FOG       66  64  93 SW7       29.83S VSB 1/2
$$

OHZ036-037-039>041-045>050-054>059-063>069-073>076-082>088-300800-
  CENTRAL AND SOUTHEAST OHIO

CITY           SKY/WX    TMP DP  RH WIND       PRES   REMARKS
COLUMBUS       PTCLDY    61  60  97 CALM      29.81F FOG
OSU AIRPORT    FOG       62  61  96 W5        29.82F VSB 1/4
BOLTON FIELD   NOT AVBL
RICKENBACK AFB NOT AVBL
NEWARK         CLOUDY    65  63  93 SW6       29.82S
MARION         MOCLDY    62  60  93 W6        29.82F FOG
LANCASTER      CLOUDY    67  65  93 W6        29.83S FOG
ZANESVILLE     CLOUDY    65  63  93 SW3       29.82F FOG
NEW PHILLY     CLOUDY    63  61  93 CALM      29.82F
$$


USA.gov is the U.S. government's official web portal to all federal, state and local government web resources and services.